Location: Unspecified
(52.4292°N, 19.3359°E)
Time: 17:55:50
(UTC+02:00)

Transit 2A Rocket - Pass Details

Date: 29 May 2024
Orbit: 583 x 910 km, 66.7° (Epoch: 22 June)

Event Time Altitude Azimuth Distance (km) Brightness Sun altitude
Rises 03:47:21 0° 223° (SW) 3,035 - -5.5°
Exits shadow 03:48:51 - 225° (SW) 2,452 6.9 -5.3°
Reaches altitude 10° 03:49:35 10° 225° (SW) 2,170 6.7 -5.2°
Maximum altitude 03:54:33 75° 312° (NW) 786 5.1 -4.7°
Drops below altitude 10° 04:00:04 10° 38° (NE) 2,406 9.5 -4.1°
Sets 04:02:38 0° 40° (NE) 3,390 11.1 -3.8°
